Regional Weather Roundup
Issued by NWS Mt. Holly, NJ

Current Version | Previous Version | Text Only | Print | Product List | Glossary Off
Versions: 1 2 3 4 5 6 7 8 9 10 11 12 13 14 15 16 17 18 19 20 21 22 23 24 25 26 27 28 29 30 31 32 33 34 35 36 37 38 39 40 41 42 43 44 45 46 47 48 49 50

000
ASUS41 KPHI 071712
RWRPHI

REGIONAL WEATHER ROUNDUP
NATIONAL WEATHER SERVICE MOUNT HOLLY NJ
100 PM EDT TUE JUL 07 2015

NOTE:  "FAIR" INDICATES FEW OR NO CLOUDS BELOW 12,000 FEET WITH NO
SIGNIFICANT WEATHER AND/OR OBSTRUCTIONS TO VISIBILITY.

 * = STATION DOES NOT REPORT PRECIPITATION (E.G. RAIN, SNOW, ETC.)
        OR FOG.

NJZ015>026-071800-
SOUTHERN NEW JERSEY

CITY           SKY/WX    TMP DP  RH WIND       PRES   REMARKS
POMONA         MOSUNNY   87  71  58 SW14      30.02F HX  93
RIO GRANDE*    MOSUNNY   86  72  62 SW7       30.05S HX  92
MILLVILLE      PTSUNNY   85  73  67 SW7       30.03F HX  91
WRIGHTSTOWN    MOSUNNY   88  72  59 SW13      29.98F HX  95
MOUNT HOLLY    MOSUNNY   86  70  58 W12       30.00F HX  90
TRENTON        MOSUNNY   85  71  63 SW10      29.99F HX  90

$$
NJZ001>014-071800-
NORTHERN NEW JERSEY

CITY           SKY/WX    TMP DP  RH WIND       PRES   REMARKS
SUSSEX         PTSUNNY   84  70  62 SW8G16    29.99
ANDOVER*         N/A     82  71  69 SW7       30.01F
MORRISTOWN     PTSUNNY   88  73  62 W8        30.00F HX  96
NEWARK         PTSUNNY   88  70  55 W10       29.98F HX  93
TETERBORO      PTSUNNY   87  69  54 S10G18    29.97F HX  91
CALDWELL       MOSUNNY   84  68  58 SW7       29.99F
SOMERVILLE     CLOUDY    83  71  67 VRB5      29.98F
ALLAIRE*       MOSUNNY   81  72  74 S12G17    30.01S THUNDER
TOMS RIVER*    MOSUNNY   82  77  83 SW6       30.01F HX  91

$$
PAZ043-044-047-054-055-060>062-066>071-071800-
EASTERN PENNSYLVANIA

CITY           SKY/WX    TMP DP  RH WIND       PRES   REMARKS
PHILADELPHIA   MOSUNNY   87  69  54 SW10      30.01F HX  91
NORTH PHILA    PTSUNNY   86  68  54 SW7       30.01F
BLUE BELL      MOSUNNY   86  72  62 SW5       30.01F HX  92
DOYLESTOWN     MOSUNNY   83  69  62 VRB5      30.00F
QUAKERTOWN*    MOSUNNY   82  72  69 SW7       30.02F
POTTSTOWN      PTSUNNY   82  71  69 VRB5      30.02F
LANCASTER      MOSUNNY   83  70  64 VRB7      30.01F
COATESVILLE    MOSUNNY   82  73  74 W5        30.04F
READING        PTSUNNY   85  71  63 W9        30.00F HX  90
ALLENTOWN      MOSUNNY   84  72  65 SW7       30.00F
MOUNT POCONO   LGT RAIN  71  66  84 SW6       30.06F
HAZLETON       MOSUNNY   79  68  69 SW6       30.07F
WILKES BARRE   CLOUDY    78  68  71 SW6       30.01F

$$
DEZALL-MDZ008-012-015-019-020-071800-
DELAWARE AND EASTERN MARYLAND

CITY           SKY/WX    TMP DP  RH WIND       PRES   REMARKS
WILMINGTON     MOSUNNY   85  71  63 SW9       30.02F HX  90
DOVER          MOSUNNY   86  73  65 SW6       30.02F HAZE    HX  93
GEORGETOWN     SUNNY     87  71  58 SW9       30.04F HX  93
EASTON         MOSUNNY   86  75  70 SW8       30.08F HX  95
ABERDEEN       MOSUNNY   84  73  70 S7        30.02F HX  91
PATUXENT       MOSUNNY   86  72  62 SW8       30.04F HX  92
OCEAN CITY     SUNNY     86  72  62 SW9       30.05F HX  92
WALLOPS ISLAND MOSUNNY   87  72  60 SW12      30.07F HX  93
CAMBRIDGE      SUNNY     86  70  58 SW7       30.04F HX  90
SALISBURY      MOSUNNY   85  73  67 SW14      30.05F HX  91

$$
PAZ001-021-NYZ056-072-MDZ011-DCZ001-071800-
OTHER NEARBY LOCATIONS

CITY           SKY/WX    TMP DP  RH WIND       PRES   REMARKS
HARRISBURG     MOSUNNY   82  71  69 W7        30.01F
STATE COLLEGE  MOSUNNY   81  70  69 SW9       30.03F
WILLIAMSPORT   MOSUNNY   82  69  64 W6        29.98F
BINGHAMTON     MOSUNNY   77  68  73 SW9       30.00F
NEW YORK CITY  MOSUNNY   85  69  58 W8        30.02F
BALTIMORE      MOSUNNY   86  69  56 W6        30.02F HX  90
WASHINGTON DC  MOSUNNY   86  74  67 S13       30.03F HX  94

$$


USA.gov is the U.S. government's official web portal to all federal, state and local government web resources and services.